Estación municipal de St. Hilari Sacalm (La Selva, Guilleries)

Consulta los datos en tiempo real de la estación municipal de St. Hilari Sacalm





Hora UTC 21:05
Temperatura 20.1 ºC
Humedad 81.3 %
Presión 1021.9 hPa
Pluja 0.0 mm
Velocidad viento 1.8 km/h
Dirección viento WNW
Radiación solar 0.1 W/m²

Webcam

Datos diarios 2026-09-01



Hora UTC (invierno +1h; verano +2h)
Temperatura (ºC) Humedad (%) Presión (hPa) Velocidad viento (km/h) Precipitación (mm) Radiación solar (W/m²)
Hora UTC Aire Humedad Presión Vel. Dir. Vel. Max Dir. Intent. máx 5 min. Rad. Sol.
00:05 18.6 94.2 1023.3 0.0 NNE 0.0 ENE 0.0 0.1
00:10 18.4 94.4 1023.3 0.0 NNE 0.0 ENE 0.0 0.1
00:15 18.4 94.9 1023.2 0.0 NNE 0.0 ENE 0.0 0.1
00:20 18.5 95.2 1023.2 0.0 NNE 0.0 ENE 0.0 0.1
00:25 18.5 95.2 1023.2 0.0 NNE 0.0 ENE 0.0 0.1
00:30 18.4 95.5 1023.2 0.0 NNE 0.0 ENE 0.0 0.1
00:35 18.4 95.6 1023.1 0.0 NNE 0.0 ENE 0.0 0.1
00:40 18.3 95.6 1023.2 0.0 NNE 0.0 ENE 0.0 0.1
00:45 18.3 95.6 1023.2 0.0 NNE 0.0 ENE 0.0 0.1
00:50 18.4 95.9 1023.2 0.0 NNE 0.0 ENE 0.0 0.1
00:55 18.4 95.8 1023.1 0.0 NNE 0.0 ENE 0.0 0.1
01:00 18.3 95.7 1023.1 0.0 NNE 0.0 ENE 0.0 0.1
01:05 18.3 95.8 1023.1 0.0 NNE 0.0 ENE 0.0 0.1
01:10 18.4 95.9 1023.1 0.0 NNE 0.0 SE 0.0 0.1
01:15 18.4 95.9 1023.1 0.0 NNE 0.0 SSE 0.0 0.1
01:20 18.4 95.8 1023.1 0.0 NNE 0.0 SSE 0.0 0.1
01:25 18.4 95.8 1023.1 0.0 NNE 0.0 SSE 0.0 0.1
01:30 18.4 95.7 1023.1 0.0 NNE 0.0 SSE 0.0 0.1
01:35 18.4 95.5 1023.1 0.0 NNE 0.0 SSE 0.0 0.1
01:40 18.4 95.5 1023.1 0.0 NNE 0.0 SSE 0.0 0.1
01:45 18.4 95.5 1023.1 0.0 NNE 0.0 SSE 0.0 0.1
01:50 18.5 95.6 1023.1 0.0 NNE 0.0 SSE 0.0 0.1
01:55 18.4 95.3 1023.1 0.0 NNE 0.0 SSE 0.0 0.1
02:00 18.3 95.1 1023.0 0.0 NNE 0.0 SSE 0.0 0.1
02:05 18.4 95.0 1023.0 0.0 NNE 0.0 W 0.0 0.1
02:10 18.3 95.1 1023.0 0.0 NNE 0.0 W 0.0 0.1
02:15 18.5 95.3 1023.0 0.0 NNE 0.0 S 0.0 0.1
02:20 18.6 95.1 1023.0 0.0 NNE 0.0 S 0.0 0.2
02:25 18.7 94.7 1022.9 0.0 NNE 0.0 SSW 0.0 0.1
02:30 18.7 94.5 1022.9 0.0 NNE 0.0 S 0.0 0.1
02:35 18.7 94.3 1022.9 0.0 NNE 0.0 S 0.0 0.1
02:40 18.6 94.0 1022.8 0.0 NNE 0.0 S 0.0 0.1
02:45 18.5 93.9 1022.7 0.0 NNE 0.0 WSW 0.0 0.1
02:50 18.4 93.8 1022.7 0.0 NNE 0.0 WNW 0.0 0.1
02:55 18.4 94.2 1022.6 0.0 NNE 0.0 WNW 0.0 0.1
03:00 18.3 94.2 1022.6 1.6 WNW 14.2 W 0.0 0.1
03:05 18.3 94.4 1022.6 2.6 WNW 11.5 NW 0.0 0.1
03:10 18.4 94.5 1022.6 3.3 WNW 11.5 WNW 0.0 0.1
03:15 18.4 94.4 1022.5 3.4 NW 14.2 W 0.0 0.2
03:20 18.3 94.3 1022.4 1.6 NNW 8.8 WNW 0.0 0.1
03:25 18.3 94.3 1022.4 0.0 NNE 0.0 NW 0.0 0.1
03:30 18.2 94.2 1022.3 1.8 WNW 11.5 NW 0.0 0.1
03:35 18.2 94.2 1022.3 2.2 NW 14.2 NNW 0.0 0.1
03:40 18.3 94.1 1022.3 3.1 NW 14.2 NW 0.0 0.1
03:45 18.3 93.8 1022.2 1.4 NW 11.5 NNW 0.0 0.1
03:50 18.2 93.7 1022.2 0.4 WNW 8.8 WNW 0.0 0.2
03:55 18.2 93.8 1022.2 0.4 WNW 8.8 NW 0.0 0.1
04:00 18.1 93.8 1022.2 0.0 NNE 0.0 WSW 0.0 0.1
04:05 18.1 93.9 1022.3 0.0 NNE 0.0 NW 0.0 0.1
04:10 18.0 93.9 1022.3 0.0 NNE 0.0 SW 0.0 0.1
04:15 18.0 94.1 1022.2 1.5 W 8.8 W 0.0 0.1
04:20 18.0 94.1 1022.2 1.4 W 11.5 W 0.0 0.1
04:25 18.0 94.1 1022.2 0.0 NW 3.4 NW 0.0 0.1
04:30 18.0 93.9 1022.1 0.0 NNE 0.0 W 0.0 0.1
04:35 18.0 94.0 1022.1 0.0 NNE 0.0 WNW 0.0 0.1
04:40 18.0 94.1 1022.1 0.1 WNW 6.1 WNW 0.0 0.1
04:45 18.0 94.1 1022.1 0.0 NNE 0.0 SW 0.0 0.2
04:50 17.9 93.9 1022.1 0.0 NNE 0.0 W 0.0 0.2
04:55 17.8 93.9 1022.1 0.0 NNE 0.0 W 0.0 0.2
05:00 17.7 94.0 1022.1 0.0 NNE 0.0 WSW 0.0 0.4
05:05 17.6 94.1 1022.1 0.7 WSW 11.5 WSW 0.0 0.8
05:10 17.6 94.4 1022.1 0.0 SW 3.4 SW 0.0 1.7
05:15 17.7 94.5 1022.1 0.9 WNW 11.5 SW 0.0 2.9
05:20 17.7 94.6 1022.2 1.7 W 8.8 NW 0.0 4.4
05:25 17.7 94.5 1022.2 0.0 NNE 0.0 SW 0.0 6.5
05:30 17.7 94.6 1022.2 0.0 NNE 0.0 WSW 0.0 9.2
05:35 17.7 94.7 1022.3 0.0 NNE 0.0 W 0.0 12.1
05:40 17.6 94.7 1022.3 0.0 NNE 0.0 W 0.0 13.8
05:45 17.7 94.9 1022.3 0.0 NNE 0.0 WNW 0.0 16.8
05:50 17.8 95.0 1022.4 0.0 NNE 0.0 WNW 0.0 21.6
05:55 17.9 94.9 1022.4 0.0 NNE 0.0 NW 0.0 22.0
06:00 17.9 94.8 1022.4 0.0 NNE 0.0 WNW 0.0 25.0
06:05 17.9 94.7 1022.4 0.0 NNE 0.0 NW 0.0 31.0
06:10 18.0 94.6 1022.4 0.0 NNE 0.0 WNW 0.0 32.8
06:15 18.1 94.4 1022.4 0.0 NNE 0.0 WSW 0.0 31.5
06:20 18.1 94.2 1022.4 0.0 NNE 0.0 WNW 0.0 33.4
06:25 18.1 94.1 1022.4 0.0 NNE 0.0 WNW 0.0 35.7
06:30 18.2 94.0 1022.5 0.0 NNE 0.0 SSW 0.0 41.4
06:35 18.3 93.9 1022.5 0.0 NNE 0.0 W 0.0 48.1
06:40 18.4 93.7 1022.5 0.0 NNE 0.0 WNW 0.0 57.4
06:45 18.5 93.5 1022.5 0.0 NNE 0.0 SW 0.0 71.2
06:50 18.6 93.2 1022.6 0.0 NNE 0.0 SW 0.0 88.7
06:55 18.7 92.7 1022.6 0.0 NNE 0.0 SW 0.0 95.6
07:00 18.9 92.2 1022.6 0.0 NNE 0.0 SW 0.0 94.3
07:05 19.1 91.9 1022.6 0.0 NNE 0.0 WSW 0.0 101.3
07:10 19.4 91.7 1022.7 0.0 NNE 0.0 WSW 0.0 159.4
07:15 20.0 90.9 1022.7 0.0 NNE 0.0 WSW 0.0 303.0
07:20 20.5 87.4 1022.6 0.0 NNE 0.0 W 0.0 321.2
07:25 20.8 84.0 1022.7 0.0 NNE 0.0 NNE 0.0 335.5
07:30 21.6 81.0 1022.7 0.0 NNE 0.0 NE 0.0 350.4
07:35 21.8 79.2 1022.7 0.0 NNE 0.0 NNW 0.0 368.1
07:40 22.4 77.0 1022.8 0.0 NNE 0.0 NW 0.0 399.9
07:45 22.5 76.8 1022.8 0.0 NNE 0.0 NNW 0.0 434.1
07:50 23.2 73.9 1022.7 2.5 NW 8.8 WNW 0.0 370.4
07:55 22.7 73.9 1022.7 1.9 NNW 8.8 NNW 0.0 128.0
08:00 22.0 75.9 1022.6 0.0 NNE 0.0 NNW 0.0 179.9
08:05 21.9 77.9 1022.6 0.0 NNE 0.0 WNW 0.0 260.4
08:10 22.1 75.7 1022.6 1.9 W 8.8 WSW 0.0 379.0
08:15 22.7 74.7 1022.6 0.6 NW 8.8 NW 0.0 511.1
08:20 23.5 70.9 1022.7 0.7 WNW 8.8 NW 0.0 524.6
08:25 23.9 69.0 1022.7 0.0 W 3.4 W 0.0 512.1
08:30 23.9 66.7 1022.7 0.0 NNE 0.0 NNW 0.0 449.5
08:35 23.9 67.1 1022.7 0.0 NNE 0.0 ESE 0.0 546.8
08:40 24.0 67.9 1022.7 2.0 NE 8.8 NNE 0.0 537.9
08:45 24.0 70.9 1022.7 2.4 ENE 8.8 ENE 0.0 556.2
08:50 24.2 70.0 1022.7 2.4 ENE 11.5 NE 0.0 566.1
08:55 24.2 69.6 1022.7 0.0 NNE 0.0 ENE 0.0 585.2
09:00 24.4 69.5 1022.7 4.3 ENE 11.5 ENE 0.0 605.6
09:05 24.1 70.5 1022.8 8.5 ENE 11.5 ENE 0.0 621.1
09:10 24.0 71.2 1022.8 6.0 ENE 11.5 ENE 0.0 664.0
09:15 23.8 71.1 1022.8 7.0 ENE 11.5 NE 0.0 397.1
09:20 23.6 71.8 1022.8 4.2 ENE 11.5 ENE 0.0 649.0
09:25 23.7 70.7 1022.9 3.9 ENE 11.5 ENE 0.0 672.7
09:30 24.0 69.9 1022.9 4.8 ENE 14.2 NE 0.0 711.5
09:35 24.0 69.4 1022.9 8.2 ENE 16.9 NE 0.0 698.7
09:40 24.0 69.0 1023.0 3.7 SE 11.5 SE 0.0 555.8
09:45 23.9 69.3 1022.9 0.0 NNE 0.0 SE 0.0 683.4
09:50 24.0 68.3 1023.0 1.5 E 14.2 ESE 0.0 616.6
09:55 24.0 68.3 1023.0 6.3 SE 16.9 ESE 0.0 508.6
10:00 23.6 69.9 1023.0 4.7 SE 14.2 SE 0.0 631.0
10:05 23.8 68.1 1023.0 4.4 SE 11.5 SE 0.0 741.9
10:10 24.1 66.7 1023.1 7.2 SSE 16.9 SSE 0.0 746.1
10:15 24.4 64.9 1023.1 13.3 SSE 25.0 SE 0.0 760.5
10:20 23.9 65.9 1023.2 9.5 SE 19.6 ESE 0.0 729.6
10:25 24.5 64.9 1023.2 10.5 S 22.3 S 0.0 736.0
10:30 24.6 64.1 1023.1 10.2 SSE 19.6 SE 0.0 746.7
10:35 24.7 64.3 1023.1 6.4 SSE 14.2 SSE 0.0 747.3
10:40 24.7 64.1 1023.0 10.7 SSE 19.6 SSE 0.0 625.7
10:45 24.6 64.0 1023.0 9.7 SSE 19.6 SSE 0.0 762.3
10:50 24.8 62.6 1023.1 8.6 SSE 16.9 E 0.0 680.0
10:55 24.8 62.3 1023.0 9.0 SE 16.9 SE 0.0 464.2
11:00 24.6 63.3 1023.0 10.4 SE 27.7 SSE 0.0 314.7
11:05 23.9 65.0 1023.1 12.5 SE 22.3 SE 0.0 273.8
11:10 23.8 66.1 1023.1 10.1 SSE 19.6 SE 0.0 205.3
11:15 23.8 66.7 1023.0 6.9 SE 19.6 E 0.0 363.5
11:20 24.3 65.7 1023.0 12.8 SE 22.3 E 0.0 820.0
11:25 25.1 64.1 1023.0 7.5 SE 16.9 SSE 0.0 794.4
11:30 25.1 63.5 1023.0 12.2 SSE 22.3 SE 0.0 783.5
11:35 25.0 64.6 1022.9 14.4 SE 25.0 ESE 0.0 765.3
11:40 25.0 63.4 1022.9 11.5 SE 25.0 SE 0.0 785.1
11:45 24.7 64.5 1022.9 15.0 ESE 27.7 ESE 0.0 804.0
11:50 25.2 63.0 1022.9 11.1 SE 19.6 E 0.0 782.0
11:55 25.5 61.4 1022.8 10.8 SSE 25.0 S 0.0 778.0
12:00 25.4 60.4 1022.8 12.7 ESE 22.3 ESE 0.0 778.2
12:05 25.5 59.3 1022.8 12.9 SSE 25.0 S 0.0 776.2
12:10 25.2 60.1 1022.8 10.0 SE 22.3 SSE 0.0 773.6
12:15 25.5 58.9 1022.7 12.5 SE 22.3 S 0.0 776.2
12:20 25.7 58.2 1022.6 12.3 SE 33.1 SSE 0.0 772.6
12:25 25.6 58.2 1022.6 14.7 ESE 25.0 S 0.0 772.5
12:30 25.1 59.4 1022.5 12.8 SE 22.3 SE 0.0 779.7
12:35 25.2 59.8 1022.5 15.6 ESE 25.0 ESE 0.0 708.0
12:40 25.2 59.9 1022.6 16.2 ESE 25.0 ESE 0.0 474.6
12:45 25.1 60.6 1022.6 10.1 SE 25.0 SSE 0.0 501.6
12:50 25.4 60.4 1022.6 9.0 SE 22.3 ESE 0.0 772.5
12:55 25.4 60.1 1022.5 8.5 SE 16.9 SSE 0.0 509.3
13:00 25.6 59.4 1022.4 9.5 SE 19.6 SSE 0.0 746.7
13:05 25.4 60.3 1022.4 10.8 SSE 22.3 SE 0.0 777.8
13:10 25.6 59.9 1022.4 11.0 SSE 22.3 SSE 0.0 288.8
13:15 25.1 61.5 1022.3 6.8 SE 14.2 S 0.0 609.7
13:20 25.6 60.8 1022.3 6.8 ESE 14.2 SE 0.0 737.2
13:25 25.5 62.0 1022.3 5.8 E 14.2 ESE 0.0 721.6
13:30 26.0 60.5 1022.3 1.7 ESE 11.5 E 0.0 678.5
13:35 26.4 58.7 1022.2 4.7 ESE 11.5 E 0.0 577.0
13:40 26.2 61.0 1022.1 2.7 SSE 11.5 ESE 0.0 690.5
13:45 26.8 58.7 1022.1 1.1 SSW 8.8 ESE 0.0 733.0
13:50 27.3 56.4 1022.0 2.8 SE 8.8 E 0.0 519.3
13:55 27.0 58.4 1021.9 2.2 ENE 11.5 ENE 0.0 363.9
14:00 26.3 60.5 1021.8 5.0 E 14.2 ESE 0.0 241.9
14:05 25.8 62.2 1021.8 1.9 ENE 8.8 ENE 0.0 184.4
14:10 25.4 63.6 1021.7 0.3 ENE 8.8 ENE 0.0 184.4
14:15 25.4 64.4 1021.8 0.0 E 3.4 E 0.0 361.7
14:20 25.5 64.2 1021.6 0.3 NE 8.8 NNE 0.0 517.2
14:25 26.0 62.8 1021.5 3.5 ENE 11.5 ENE 0.0 663.7
14:30 26.3 61.5 1021.6 0.8 ENE 6.1 ENE 0.0 280.1
14:35 26.1 62.6 1021.5 0.3 NNE 6.1 NNE 0.0 271.4
14:40 25.7 63.8 1021.5 0.1 ENE 3.4 ENE 0.0 508.1
14:45 26.2 62.5 1021.6 0.0 NNE 0.0 ENE 0.0 639.4
14:50 26.2 61.3 1021.6 2.2 SSE 11.5 S 0.0 551.1
14:55 26.4 60.7 1021.5 0.8 S 6.1 SSW 0.0 186.2
15:00 26.0 63.5 1021.5 2.3 E 11.5 ENE 0.0 272.0
15:05 25.9 64.4 1021.4 3.0 ESE 11.5 ESE 0.0 589.0
15:10 26.1 63.3 1021.3 5.9 ESE 14.2 ENE 0.0 450.8
15:15 25.3 64.5 1021.1 5.2 SE 11.5 SE 0.0 333.5
15:20 25.2 65.5 1021.3 0.0 NNE 0.0 SE 0.0 316.5
15:25 25.3 65.2 1021.4 0.2 ENE 6.1 NE 0.0 171.5
15:30 25.0 66.6 1021.4 0.0 NNE 0.0 ENE 0.0 140.5
15:35 25.0 67.0 1021.3 0.0 ENE 3.4 E 0.0 281.7
15:40 25.1 66.6 1021.1 2.5 E 8.8 E 0.0 374.8
15:45 24.8 67.6 1021.3 1.1 S 8.8 S 0.0 273.5
15:50 24.9 67.1 1021.5 0.0 NNE 0.0 SSW 0.0 477.9
15:55 25.0 66.0 1021.4 0.0 NNE 0.0 S 0.0 420.7
16:00 24.9 67.6 1021.3 0.0 NNE 0.0 ENE 0.0 359.9
16:05 24.7 68.3 1021.4 3.1 ENE 11.5 ENE 0.0 239.2
16:10 24.5 69.0 1021.3 0.1 E 3.4 ESE 0.0 316.2
16:15 24.3 69.5 1021.3 3.9 ENE 8.8 ENE 0.0 294.0
16:20 24.1 70.4 1021.2 0.0 N 3.4 N 0.0 162.6
16:25 23.9 70.7 1021.2 0.0 NNE 0.0 ENE 0.0 57.6
16:30 23.6 72.0 1021.3 0.0 NNE 0.0 NE 0.0 71.7
16:35 23.4 72.8 1021.3 0.2 E 6.1 E 0.0 106.4
16:40 23.4 72.8 1021.3 0.1 E 6.1 ENE 0.0 123.1
16:45 23.5 73.0 1021.4 0.4 ENE 6.1 ENE 0.0 90.1
16:50 23.5 72.2 1021.3 0.9 S 6.1 SSW 0.0 63.8
16:55 23.7 71.4 1021.3 0.0 NNE 0.0 S 0.0 66.9
17:00 23.5 72.9 1021.3 0.0 NNE 0.0 SSE 0.0 75.5
17:05 23.3 73.3 1021.3 0.0 NNE 0.0 S 0.0 70.8
17:10 23.2 73.9 1021.2 0.0 NNE 0.0 SE 0.0 62.5
17:15 22.8 76.2 1021.1 0.0 NNE 0.0 N 0.0 51.4
17:20 22.6 77.3 1021.0 0.0 NNE 0.0 WSW 0.0 44.6
17:25 22.4 78.7 1021.0 0.0 NNE 0.0 N 0.0 41.1
17:30 22.2 79.2 1021.0 0.0 NNE 0.0 N 0.0 43.3
17:35 22.1 78.9 1021.0 0.0 NNE 0.0 N 0.0 45.9
17:40 22.1 78.6 1021.0 0.0 NNE 0.0 N 0.0 46.5
17:45 22.7 76.8 1021.1 0.2 S 3.4 SSE 0.0 43.8
17:50 23.3 72.6 1021.1 1.6 W 8.8 WSW 0.0 36.2
17:55 23.4 69.9 1021.1 0.3 WSW 6.1 WSW 0.0 33.1
18:00 23.3 69.3 1021.0 0.0 NNE 0.0 NW 0.0 30.0
18:05 23.2 69.1 1021.0 0.0 W 3.4 W 0.0 18.1
18:10 23.2 70.4 1021.0 0.0 NNE 0.0 SW 0.0 13.6
18:15 23.0 69.8 1020.9 1.9 WNW 8.8 WNW 0.0 8.8
18:20 22.7 70.9 1020.9 0.1 NW 3.4 NW 0.0 6.6
18:25 22.5 71.6 1020.9 0.0 NNE 0.0 NW 0.0 3.2
18:30 22.4 71.9 1021.0 0.0 NNE 0.0 WNW 0.0 1.4
18:35 22.2 72.6 1020.9 0.0 NNE 0.0 NW 0.0 1.1
18:40 22.0 73.2 1021.0 0.0 NNE 0.0 W 0.0 0.7
18:45 21.9 73.4 1020.9 0.0 NNE 0.0 WNW 0.0 0.2
18:50 21.9 73.5 1020.8 0.0 WNW 3.4 WNW 0.0 0.2
18:55 21.8 73.5 1020.9 0.8 WNW 8.8 WNW 0.0 0.2
19:00 21.8 73.7 1021.0 0.0 NNE 0.0 WNW 0.0 0.1
19:05 21.7 74.6 1021.1 0.0 NNE 0.0 SW 0.0 0.1
19:10 21.5 74.9 1021.1 0.0 NNE 0.0 WNW 0.0 0.1
19:15 21.5 75.0 1021.1 0.0 NNE 0.0 NW 0.0 0.1
19:20 21.5 75.0 1021.2 0.0 NNE 0.0 NW 0.0 0.2
19:25 21.4 75.2 1021.3 0.0 NNE 0.0 NNW 0.0 0.1
19:30 21.3 75.9 1021.4 0.0 NNE 0.0 NNE 0.0 0.1
19:35 21.2 76.3 1021.5 0.0 NNE 0.0 N 0.0 0.1
19:40 21.2 75.8 1021.5 0.0 NNE 0.0 W 0.0 0.1
19:45 21.1 75.9 1021.6 0.0 NNE 0.0 W 0.0 0.1
19:50 21.0 75.7 1021.7 0.0 NNE 0.0 WNW 0.0 0.1
19:55 21.0 75.6 1021.7 0.0 NNE 0.0 SW 0.0 0.1
20:00 20.9 76.1 1021.8 0.0 NNE 0.0 SW 0.0 0.1
20:05 20.9 76.6 1021.9 0.0 NNE 0.0 WSW 0.0 0.1
20:10 20.8 76.8 1022.0 0.0 NNE 0.0 WSW 0.0 0.1
20:15 20.5 77.7 1022.0 0.0 NNE 0.0 NNW 0.0 0.1
20:20 20.4 78.2 1022.0 0.0 NNE 0.0 WNW 0.0 0.2
20:25 20.2 78.9 1021.9 0.0 NNE 0.0 WNW 0.0 0.1
20:30 20.0 79.4 1022.0 0.0 NNE 0.0 NW 0.0 0.1
20:35 20.2 78.3 1021.9 0.0 NNE 0.0 NW 0.0 0.1
20:40 20.3 77.9 1022.0 0.9 NW 11.5 NW 0.0 0.1
20:45 20.2 78.6 1022.0 1.0 WNW 8.8 W 0.0 0.1
20:50 20.1 79.7 1021.9 0.0 NNE 0.0 WNW 0.0 0.1
20:55 20.1 80.3 1021.9 0.0 NNE 0.0 NW 0.0 0.2
21:00 20.1 80.6 1021.9 0.9 NW 11.5 NW 0.0 0.1
21:05 20.1 81.3 1021.9 1.8 WNW 14.2 WSW 0.0 0.1
Máxima 27.3 95.9 1023.3 16.2 ESE 33.1 SSE 0.0 820.0
Mínima 17.6 56.4 1020.8
Total 0.0